Wise, VA

3:41 AM EDT on May 25, 2018 (GMT -0400)
Lonesome Pine

Weather History for KLNP - November, 2010

Change the Weather History Date:

Sunday, November 21, 2010

  Actual Average Record
Temperature  
Mean Temperature 51 °F -  
Max Temperature 60 °F 51 °F 69 °F (1999)
Min Temperature 42 °F 33 °F 15 °F (2000)
Degree Days  
Heating Degree Days 14    
Growing Degree Days 1 (Base 50)    
Moisture  
Dew Point 43 °F    
Average Humidity 70    
Maximum Humidity 87    
Minimum Humidity 59    
Precipitation  
Precipitation 0.00 in - - ()
Sea Level Pressure  
Sea Level Pressure 30.32 in    
Wind  
Wind Speed 6 mph (South)    
Max Wind Speed 18 mph    
Max Gust Speed 24 mph    
Visibility 10 miles    
Events      
Averages and records for this station are not official NWS values.
T = Trace of Precipitation, MM = Missing Value Source: NWS Daily Summary

Daily Weather History Graph

Daily Weather History Graph

Search for Another Location

Airport or City:

Astronomy

Nov. 21, 2010 Rise Set
Actual Time 7:14 AM EST 5:16 PM EST
Civil Twilight 6:46 AM EST 5:44 PM EST
Nautical Twilight 6:15 AM EST 6:16 PM EST
Astronomical Twilight 5:44 AM EST 6:47 PM EST
Moon 5:08 PM EST (11/21) 7:13 AM EST (11/21)
Length of Visible Light 10h 58m
Length of Day
10h 02m
Full, 100% of the Moon is Illuminated
Nov 21
Full
Nov 21
Full
Nov 28
Last Quarter
Dec 5
New
Dec 13
First Quarter

Hourly Weather History & Observations

Time (EST) Temp. Windchill Dew Point Humidity Pressure Visibility Wind Dir Wind Speed Gust Speed Precip Events Conditions
12:19 AM 44.6 °F 43.1 °F 41.0 °F 87% 30.31 in 10.0 mi SSW 3.5 mph - N/A   Clear
12:39 AM 44.6 °F 41.4 °F 39.2 °F 81% 30.32 in 10.0 mi SW 5.8 mph - N/A   Clear
12:59 AM 44.6 °F 42.2 °F 39.2 °F 81% 30.32 in 10.0 mi SSW 4.6 mph - N/A   Clear
1:19 AM 44.6 °F 42.2 °F 39.2 °F 81% 30.32 in 10.0 mi SSW 4.6 mph - N/A   Clear
1:39 AM 44.6 °F 42.2 °F 39.2 °F 81% 30.32 in 10.0 mi SSW 4.6 mph - N/A   Clear
1:59 AM 44.6 °F 43.1 °F 41.0 °F 87% 30.31 in 10.0 mi South 3.5 mph - N/A   Clear
2:19 AM 44.6 °F - 39.2 °F 81% 30.32 in 10.0 mi Calm Calm - N/A   Clear
2:59 AM 44.6 °F 43.1 °F 39.2 °F 81% 30.32 in 10.0 mi South 3.5 mph - N/A   Scattered Clouds
3:19 AM 44.6 °F - 39.2 °F 81% 30.32 in 10.0 mi Calm Calm - N/A   Mostly Cloudy
3:39 AM 42.8 °F - 39.2 °F 87% 30.32 in 10.0 mi Calm Calm - N/A   Overcast
3:59 AM 44.6 °F - 41.0 °F 87% 30.32 in 10.0 mi Calm Calm - N/A   Overcast
4:19 AM 46.4 °F - 41.0 °F 81% 30.32 in 10.0 mi Calm Calm - N/A   Overcast
4:39 AM 48.2 °F - 42.8 °F 82% 30.33 in 10.0 mi Calm Calm - N/A   Overcast
4:59 AM 50.0 °F - 42.8 °F 76% 30.32 in 10.0 mi SE 4.6 mph - N/A   Overcast
5:19 AM 50.0 °F - 42.8 °F 76% 30.33 in 10.0 mi SSE 4.6 mph - N/A   Overcast
5:39 AM 50.0 °F - 42.8 °F 76% 30.33 in 10.0 mi SSE 4.6 mph - N/A   Overcast
5:59 AM 50.0 °F - 41.0 °F 71% 30.33 in 10.0 mi SE 4.6 mph - N/A   Overcast
6:19 AM 50.0 °F - 41.0 °F 71% 30.33 in 10.0 mi ESE 4.6 mph - N/A   Overcast
6:39 AM 48.2 °F - 41.0 °F 76% 30.34 in 10.0 mi SE 4.6 mph - N/A   Overcast
6:59 AM 50.0 °F - 42.8 °F 76% 30.34 in 10.0 mi ESE 3.5 mph - N/A   Overcast
7:19 AM 50.0 °F - 42.8 °F 76% 30.35 in 10.0 mi SE 4.6 mph - N/A   Overcast
7:39 AM 50.0 °F - 42.8 °F 76% 30.36 in 10.0 mi SE 3.5 mph - N/A   Overcast
7:59 AM 50.0 °F - 42.8 °F 76% 30.36 in 10.0 mi Calm Calm - N/A   Overcast
8:19 AM 51.8 °F - 42.8 °F 71% 30.36 in - SSE 3.5 mph - N/A   Unknown
8:39 AM 51.8 °F - 42.8 °F 71% 30.36 in 10.0 mi SSE 3.5 mph - N/A   Overcast
8:59 AM 53.6 °F - 42.8 °F 67% 30.36 in 10.0 mi SSE 5.8 mph - N/A   Overcast
9:39 AM 53.6 °F - 42.8 °F 67% 30.36 in 10.0 mi SSE 5.8 mph - N/A   Overcast
9:59 AM 55.4 °F - 42.8 °F 63% 30.37 in 10.0 mi South 8.1 mph - N/A   Overcast
10:19 AM 55.4 °F - 44.6 °F 67% 30.37 in 10.0 mi SSE 8.1 mph - N/A   Overcast
10:39 AM 57.2 °F - 44.6 °F 63% 30.36 in 10.0 mi South 8.1 mph - N/A   Overcast
10:59 AM 59.0 °F - 44.6 °F 59% 30.36 in 10.0 mi South 10.4 mph 16.1 mph N/A   Mostly Cloudy
11:19 AM 59.0 °F - 44.6 °F 59% 30.36 in 10.0 mi South 11.5 mph 16.1 mph N/A   Mostly Cloudy
11:39 AM 59.0 °F - 44.6 °F 59% 30.35 in 10.0 mi SSW 10.4 mph 16.1 mph N/A   Scattered Clouds
11:59 AM 60.8 °F - 46.4 °F 59% 30.34 in 10.0 mi SW 8.1 mph - N/A   Mostly Cloudy
12:19 PM 60.8 °F - 46.4 °F 59% 30.32 in 10.0 mi South 13.8 mph 20.7 mph N/A   Mostly Cloudy
12:39 PM 60.8 °F - 46.4 °F 59% 30.31 in 10.0 mi South 15.0 mph 21.9 mph N/A   Scattered Clouds
12:59 PM 60.8 °F - 46.4 °F 59% 30.31 in 10.0 mi South 18.4 mph 24.2 mph N/A   Scattered Clouds
1:19 PM 60.8 °F - 46.4 °F 59% 30.30 in 10.0 mi SSW 15.0 mph 21.9 mph N/A   Scattered Clouds
1:39 PM 60.8 °F - 46.4 °F 59% 30.30 in 10.0 mi SSW 15.0 mph 18.4 mph N/A   Mostly Cloudy
1:59 PM 59.0 °F - 46.4 °F 63% 30.30 in 10.0 mi SSW 12.7 mph 17.3 mph N/A   Mostly Cloudy
2:19 PM 59.0 °F - 46.4 °F 63% 30.30 in 10.0 mi SW 10.4 mph - N/A   Mostly Cloudy
2:39 PM 60.8 °F - 46.4 °F 59% 30.29 in 10.0 mi SW 11.5 mph 16.1 mph N/A   Overcast
2:59 PM 60.8 °F - 46.4 °F 59% 30.29 in 10.0 mi SSW 16.1 mph 24.2 mph N/A   Mostly Cloudy
3:19 PM 60.8 °F - 46.4 °F 59% 30.28 in 10.0 mi South 13.8 mph - N/A   Mostly Cloudy
3:39 PM 59.0 °F - 46.4 °F 63% 30.29 in 10.0 mi South 15.0 mph 23.0 mph N/A   Scattered Clouds
3:59 PM 59.0 °F - 46.4 °F 63% 30.29 in 10.0 mi SSW 18.4 mph 23.0 mph N/A   Scattered Clouds
4:19 PM 59.0 °F - 46.4 °F 63% 30.28 in 10.0 mi SSW 13.8 mph 17.3 mph N/A   Clear
4:39 PM 59.0 °F - 46.4 °F 63% 30.29 in 10.0 mi SSW 15.0 mph - N/A   Clear
4:59 PM 57.2 °F - 44.6 °F 63% 30.29 in 10.0 mi South 10.4 mph 19.6 mph N/A   Clear
5:19 PM 57.2 °F - 44.6 °F 63% 30.29 in 10.0 mi SSW 10.4 mph 17.3 mph N/A   Clear
5:39 PM 55.4 °F - 44.6 °F 67% 30.29 in 10.0 mi SSW 8.1 mph - N/A   Clear
5:59 PM 55.4 °F - 44.6 °F 67% 30.29 in 10.0 mi SSW 9.2 mph - N/A   Clear
6:19 PM 55.4 °F - 44.6 °F 67% 30.30 in 10.0 mi SSW 9.2 mph - N/A   Clear
6:39 PM 55.4 °F - 44.6 °F 67% 30.30 in 10.0 mi SSW 10.4 mph - N/A   Clear
6:59 PM 57.2 °F - 44.6 °F 63% 30.30 in 10.0 mi SSW 9.2 mph - N/A   Clear
7:19 PM 57.2 °F - 44.6 °F 63% 30.30 in 10.0 mi SSW 10.4 mph - N/A   Clear
7:39 PM 55.4 °F - 44.6 °F 67% 30.30 in 10.0 mi SSW 6.9 mph - N/A   Clear
7:59 PM 55.4 °F - 44.6 °F 67% 30.30 in 10.0 mi SSW 5.8 mph - N/A   Clear
8:19 PM 55.4 °F - 44.6 °F 67% 30.30 in 10.0 mi South 4.6 mph - N/A   Clear
8:39 PM 55.4 °F - 44.6 °F 67% 30.30 in 10.0 mi South 5.8 mph - N/A   Clear
8:59 PM 57.2 °F - 44.6 °F 63% 30.30 in 10.0 mi South 9.2 mph - N/A   Clear
9:19 PM 57.2 °F - 44.6 °F 63% 30.30 in 10.0 mi South 8.1 mph - N/A   Clear
9:39 PM 55.4 °F - 44.6 °F 67% 30.29 in 10.0 mi SSE 10.4 mph - N/A   Clear
9:59 PM 55.4 °F - 44.6 °F 67% 30.30 in 10.0 mi South 8.1 mph - N/A   Clear
10:19 PM 55.4 °F - 44.6 °F 67% 30.30 in 10.0 mi South 8.1 mph - N/A   Clear
10:59 PM 53.6 °F - 44.6 °F 72% 30.30 in 10.0 mi South 6.9 mph - N/A   Clear
11:19 PM 53.6 °F - 44.6 °F 72% 30.29 in 10.0 mi South 9.2 mph - N/A   Clear
11:39 PM 53.6 °F - 44.6 °F 72% 30.29 in 10.0 mi South 11.5 mph - N/A   Clear
11:59 PM 53.6 °F - 44.6 °F 72% 30.29 in 10.0 mi South 13.8 mph 18.4 mph N/A   Clear